Time,TemperatureF,DewpointF,PressureIn,WindDirection,WindDirectionDegrees,WindSpeedMPH,WindSpeedGustMPH,Humidity,HourlyPrecipIn,Conditions,Clouds,dailyrainin,SolarRadiationWatts/m^2,SoftwareType,DateUTC
2016-07-23 00:01:00,68.0,18.6,30.05,WNW,292,5.8,5.8,15,0.00,CLR,FEW,0.00,0.0,WeatherDisplay:10.37,2016-07-23 07:01:00,
2016-07-23 00:06:00,68.4,18.9,30.02,NW,315,3.6,6.2,15,0.00,CLR,FEW,0.00,0.0,WeatherDisplay:10.37,2016-07-23 07:06:00,
2016-07-23 00:11:00,68.4,18.9,30.02,WNW,292,5.8,5.8,15,0.00,CLR,FEW,0.00,0.0,WeatherDisplay:10.37,2016-07-23 07:11:00,
2016-07-23 00:16:00,68.4,18.9,30.02,WNW,292,5.8,5.8,15,0.00,CLR,FEW,0.00,0.0,WeatherDisplay:10.37,2016-07-23 07:16:00,
2016-07-23 00:21:00,68.0,18.6,30.05,WSW,248,3.5,3.5,15,0.00,CLR,FEW,0.00,0.0,WeatherDisplay:10.37,2016-07-23 07:21:00,
2016-07-23 00:26:00,67.5,18.1,30.05,WSW,248,2.3,2.3,15,0.00,CLR,FEW,0.00,0.0,WeatherDisplay:10.37,2016-07-23 07:26:00,
2016-07-23 00:31:00,66.9,17.7,30.05,WSW,248,2.3,2.3,15,0.00,CLR,FEW,0.00,0.0,WeatherDisplay:10.37,2016-07-23 07:31:00,
2016-07-23 00:36:00,66.4,17.3,30.05,West,270,2.4,2.4,15,0.00,CLR,FEW,0.00,0.0,WeatherDisplay:10.37,2016-07-23 07:36:00,
2016-07-23 00:41:00,66.2,17.1,30.05,WNW,292,2.3,2.3,15,0.00,CLR,FEW,0.00,0.0,WeatherDisplay:10.37,2016-07-23 07:41:00,
2016-07-23 00:46:00,65.8,16.8,30.05,East,90,2.3,2.3,15,0.00,CLR,FEW,0.00,0.0,WeatherDisplay:10.37,2016-07-23 07:46:00,
2016-07-23 00:51:00,64.9,16.1,30.05,ESE,112,1.1,1.1,15,0.00,CLR,FEW,0.00,0.0,WeatherDisplay:10.37,2016-07-23 07:51:00,
2016-07-23 00:56:00,63.9,16.7,30.05,West,270,2.4,2.4,16,0.00,CLR,FEW,0.00,0.0,WeatherDisplay:10.37,2016-07-23 07:56:00,
2016-07-23 01:01:00,63.1,16.2,30.05,WSW,248,2.3,2.3,16,0.00,CLR,FEW,0.00,0.0,WeatherDisplay:10.37,2016-07-23 08:01:00,
2016-07-23 01:06:00,62.1,15.3,30.05,WNW,292,2.9,2.9,16,0.00,CLR,FEW,0.00,0.0,WeatherDisplay:10.37,2016-07-23 08:06:00,
2016-07-23 01:11:00,62.1,15.3,30.05,WNW,292,3.5,3.5,16,0.00,CLR,FEW,0.00,0.0,WeatherDisplay:10.37,2016-07-23 08:11:00,
2016-07-23 01:16:00,62.1,15.3,30.05,WNW,292,2.3,2.3,16,0.00,CLR,FEW,0.00,0.0,WeatherDisplay:10.37,2016-07-23 08:16:00,
2016-07-23 01:21:00,61.9,15.1,30.05,NW,315,2.6,2.6,16,0.00,CLR,FEW,0.00,0.0,WeatherDisplay:10.37,2016-07-23 08:21:00,
2016-07-23 01:26:00,61.7,15.0,30.05,West,270,2.0,2.0,16,0.00,CLR,FEW,0.00,0.0,WeatherDisplay:10.37,2016-07-23 08:26:00,
2016-07-23 01:31:00,61.7,15.0,30.05,WSW,248,2.3,2.3,16,0.00,CLR,FEW,0.00,0.0,WeatherDisplay:10.37,2016-07-23 08:31:00,
2016-07-23 01:36:00,61.5,14.8,30.05,West,270,2.0,2.0,16,0.00,CLR,FEW,0.00,0.0,WeatherDisplay:10.37,2016-07-23 08:36:00,
2016-07-23 01:41:00,61.3,14.7,30.05,West,270,2.3,0.0,16,0.00,CLR,FEW,0.00,0.0,WeatherDisplay:10.37,2016-07-23 08:41:00,
2016-07-23 01:46:00,61.5,14.8,30.05,West,270,1.1,0.0,16,0.00,CLR,FEW,0.00,0.0,WeatherDisplay:10.37,2016-07-23 08:46:00,
2016-07-23 01:51:00,61.2,14.5,30.05,West,270,2.4,2.4,16,0.00,CLR,FEW,0.00,0.0,WeatherDisplay:10.37,2016-07-23 08:51:00,
2016-07-23 01:56:00,61.0,14.4,30.05,West,270,1.1,1.1,16,0.00,CLR,FEW,0.00,0.0,WeatherDisplay:10.37,2016-07-23 08:56:00,
2016-07-23 02:01:00,60.4,15.4,30.05,WSW,248,0.0,0.0,17,0.00,CLR,FEW,0.00,0.0,WeatherDisplay:10.37,2016-07-23 09:01:00,
2016-07-23 02:06:00,60.3,15.2,30.05,WSW,248,0.0,0.0,17,0.00,CLR,FEW,0.00,0.0,WeatherDisplay:10.37,2016-07-23 09:06:00,
2016-07-23 02:11:00,59.7,14.8,30.05,WSW,248,0.0,0.0,17,0.00,CLR,FEW,0.00,0.0,WeatherDisplay:10.37,2016-07-23 09:11:00,
2016-07-23 02:16:00,59.4,14.5,30.05,West,270,2.3,2.3,17,0.00,CLR,FEW,0.00,0.0,WeatherDisplay:10.37,2016-07-23 09:16:00,
2016-07-23 02:21:00,59.2,14.3,30.05,West,270,0.0,0.0,17,0.00,CLR,FEW,0.00,0.0,WeatherDisplay:10.37,2016-07-23 09:21:00,
2016-07-23 02:26:00,58.6,13.9,30.05,West,270,2.4,2.4,17,0.00,CLR,FEW,0.00,0.0,WeatherDisplay:10.37,2016-07-23 09:26:00,
2016-07-23 02:31:00,58.5,13.7,30.05,West,270,2.0,0.0,17,0.00,CLR,FEW,0.00,0.0,WeatherDisplay:10.37,2016-07-23 09:31:00,
2016-07-23 02:36:00,58.6,13.9,30.05,WSW,248,1.6,1.6,17,0.00,CLR,FEW,0.00,0.0,WeatherDisplay:10.37,2016-07-23 09:36:00,
2016-07-23 02:41:00,58.5,13.7,30.05,WSW,248,0.0,0.0,17,0.00,CLR,FEW,0.00,0.0,WeatherDisplay:10.37,2016-07-23 09:41:00,
2016-07-23 02:46:00,57.7,13.2,30.05,WSW,248,2.6,0.0,17,0.00,CLR,FEW,0.00,0.0,WeatherDisplay:10.37,2016-07-23 09:46:00,
2016-07-23 02:51:00,57.6,13.0,30.05,WSW,248,0.0,0.0,17,0.00,CLR,FEW,0.00,0.0,WeatherDisplay:10.37,2016-07-23 09:51:00,
2016-07-23 02:56:00,57.0,12.6,30.05,WSW,248,3.5,3.5,17,0.00,CLR,FEW,0.00,0.0,WeatherDisplay:10.37,2016-07-23 09:56:00,
2016-07-23 03:01:00,57.2,12.7,30.05,West,270,2.3,2.3,17,0.00,CLR,FEW,0.00,0.0,WeatherDisplay:10.37,2016-07-23 10:01:00,
2016-07-23 03:06:00,57.2,12.7,30.02,WSW,248,0.0,0.0,17,0.00,CLR,FEW,0.00,0.0,WeatherDisplay:10.37,2016-07-23 10:06:00,
2016-07-23 03:11:00,56.8,12.4,30.02,WSW,248,1.6,0.0,17,0.00,CLR,FEW,0.00,0.0,WeatherDisplay:10.37,2016-07-23 10:11:00,
2016-07-23 03:16:00,56.8,12.4,30.02,WSW,248,1.1,1.1,17,0.00,CLR,FEW,0.00,0.0,WeatherDisplay:10.37,2016-07-23 10:16:00,
2016-07-23 03:21:00,56.7,12.3,30.05,WSW,248,2.4,2.4,17,0.00,CLR,FEW,0.00,0.0,WeatherDisplay:10.37,2016-07-23 10:21:00,
2016-07-23 03:26:00,56.7,12.3,30.05,WSW,248,0.0,0.0,17,0.00,CLR,FEW,0.00,0.0,WeatherDisplay:10.37,2016-07-23 10:26:00,
2016-07-23 03:31:00,56.3,12.0,30.05,WNW,292,2.3,2.3,17,0.00,CLR,FEW,0.00,0.0,WeatherDisplay:10.37,2016-07-23 10:31:00,
2016-07-23 03:36:00,56.3,12.0,30.02,WNW,292,2.4,2.4,17,0.00,CLR,FEW,0.00,0.0,WeatherDisplay:10.37,2016-07-23 10:36:00,
2016-07-23 03:41:00,56.1,11.8,30.02,West,270,2.4,2.4,17,0.00,CLR,FEW,0.00,0.0,WeatherDisplay:10.37,2016-07-23 10:41:00,
2016-07-23 03:46:00,55.9,11.7,30.02,WSW,248,2.4,2.4,17,0.00,CLR,FEW,0.00,0.0,WeatherDisplay:10.37,2016-07-23 10:46:00,
2016-07-23 03:51:00,55.9,11.7,30.02,WSW,248,1.1,1.1,17,0.00,CLR,FEW,0.00,0.0,WeatherDisplay:10.37,2016-07-23 10:51:00,
2016-07-23 03:56:00,55.4,11.2,30.02,WNW,292,2.6,2.6,17,0.00,CLR,FEW,0.00,0.0,WeatherDisplay:10.37,2016-07-23 10:56:00,
2016-07-23 04:01:00,55.2,12.4,30.02,West,270,2.3,2.3,18,0.00,CLR,FEW,0.00,0.0,WeatherDisplay:10.37,2016-07-23 11:01:00,
2016-07-23 04:06:00,55.0,12.2,30.02,WNW,292,0.0,0.0,18,0.00,CLR,FEW,0.00,0.0,WeatherDisplay:10.37,2016-07-23 11:06:00,
2016-07-23 04:11:00,54.9,12.1,30.02,West,270,0.0,0.0,18,0.00,CLR,FEW,0.00,0.0,WeatherDisplay:10.37,2016-07-23 11:11:00,
2016-07-23 04:16:00,54.5,11.8,30.02,West,270,0.0,0.0,18,0.00,CLR,FEW,0.00,0.0,WeatherDisplay:10.37,2016-07-23 11:16:00,
2016-07-23 04:21:00,54.5,11.8,30.02,West,270,1.6,1.6,18,0.00,CLR,FEW,0.00,0.0,WeatherDisplay:10.37,2016-07-23 11:21:00,
2016-07-23 04:26:00,54.5,11.8,30.02,West,270,2.3,2.3,18,0.00,CLR,FEW,0.00,0.0,WeatherDisplay:10.37,2016-07-23 11:26:00,
2016-07-23 04:31:00,54.5,11.8,30.02,West,270,0.0,0.0,18,0.00,CLR,FEW,0.00,0.0,WeatherDisplay:10.37,2016-07-23 11:31:00,
2016-07-23 04:36:00,54.3,11.6,30.02,West,270,0.0,0.0,18,0.00,CLR,FEW,0.00,0.0,WeatherDisplay:10.37,2016-07-23 11:36:00,
2016-07-23 04:41:00,53.8,11.2,30.02,WNW,292,3.5,3.5,18,0.00,CLR,FEW,0.00,0.0,WeatherDisplay:10.37,2016-07-23 11:41:00,
2016-07-23 04:46:00,53.8,11.2,30.02,West,270,1.6,1.6,18,0.00,CLR,FEW,0.00,0.0,WeatherDisplay:10.37,2016-07-23 11:46:00,
2016-07-23 04:51:00,53.8,11.2,30.02,West,270,2.3,2.3,18,0.00,CLR,FEW,0.00,0.0,WeatherDisplay:10.37,2016-07-23 11:51:00,
2016-07-23 04:56:00,53.8,11.2,30.02,WNW,292,2.4,2.4,18,0.00,CLR,FEW,0.00,0.0,WeatherDisplay:10.37,2016-07-23 11:56:00,
2016-07-23 05:01:00,54.3,11.6,30.02,WSW,248,1.4,1.4,18,0.00,CLR,FEW,0.00,0.0,WeatherDisplay:10.37,2016-07-23 12:01:00,
2016-07-23 05:06:00,54.3,11.6,30.02,WSW,248,0.0,0.0,18,0.00,CLR,FEW,0.00,0.0,WeatherDisplay:10.37,2016-07-23 12:06:00,
2016-07-23 05:11:00,54.0,11.3,30.02,WSW,248,0.0,0.0,18,0.00,CLR,FEW,0.00,0.0,WeatherDisplay:10.37,2016-07-23 12:11:00,
2016-07-23 05:16:00,53.8,11.2,30.02,WSW,248,1.1,1.1,18,0.00,CLR,FEW,0.00,0.0,WeatherDisplay:10.37,2016-07-23 12:16:00,
2016-07-23 05:21:00,53.6,11.0,30.02,WSW,248,0.0,0.0,18,0.00,OVC,FEW,0.00,0.0,WeatherDisplay:10.37,2016-07-23 12:21:00,
2016-07-23 05:26:00,53.4,14.4,30.02,West,270,1.6,1.6,21,0.00,OVC,FEW,0.00,0.0,WeatherDisplay:10.37,2016-07-23 12:26:00,
2016-07-23 05:31:00,53.2,14.2,30.02,West,270,2.3,2.3,21,0.00,OVC,FEW,0.00,0.0,WeatherDisplay:10.37,2016-07-23 12:31:00,
2016-07-23 05:36:00,52.9,13.9,30.02,West,270,2.4,2.4,21,0.00,OVC,FEW,0.00,0.0,WeatherDisplay:10.37,2016-07-23 12:36:00,
2016-07-23 05:41:00,52.5,13.6,30.02,West,270,1.1,1.1,21,0.00,OVC,FEW,0.00,0.0,WeatherDisplay:10.37,2016-07-23 12:41:00,
2016-07-23 05:46:00,52.2,13.3,30.02,West,270,2.4,2.4,21,0.00,OVC,FEW,0.00,0.0,WeatherDisplay:10.37,2016-07-23 12:46:00,
2016-07-23 05:51:00,52.2,13.3,30.02,West,270,2.3,2.3,21,0.00,OVC,FEW,0.00,0.0,WeatherDisplay:10.37,2016-07-23 12:51:00,
2016-07-23 05:56:00,52.0,13.2,30.02,West,270,0.0,0.0,21,0.00,OVC,FEW,0.00,0.0,WeatherDisplay:10.37,2016-07-23 12:56:00,
2016-07-23 06:01:00,51.8,13.0,30.02,WSW,248,1.1,0.0,21,0.00,OVC,FEW,0.00,0.0,WeatherDisplay:10.37,2016-07-23 13:01:00,
2016-07-23 06:06:00,51.8,13.0,30.02,WNW,292,2.3,2.3,21,0.00,OVC,FEW,0.00,0.0,WeatherDisplay:10.37,2016-07-23 13:06:00,
2016-07-23 06:09:00,51.8,13.0,30.02,WSW,248,0.0,0.0,21,0.00,OVC,FEW,0.00,0.0,WeatherDisplay:10.37,2016-07-23 13:09:00,
2016-07-23 06:14:00,52.0,13.2,30.02,West,270,1.1,0.0,21,0.00,OVC,FEW,0.00,0.0,WeatherDisplay:10.37,2016-07-23 13:14:00,
2016-07-23 06:19:00,52.2,13.3,30.02,West,270,0.0,0.0,21,0.00,OVC,FEW,0.00,0.0,WeatherDisplay:10.37,2016-07-23 13:19:00,
2016-07-23 06:24:00,52.5,13.6,30.02,West,270,2.3,2.3,21,0.00,OVC,FEW,0.00,0.0,WeatherDisplay:10.37,2016-07-23 13:24:00,
2016-07-23 06:29:00,52.9,16.0,30.02,West,270,2.3,2.3,23,0.00,OVC,FEW,0.00,0.0,WeatherDisplay:10.37,2016-07-23 13:29:00,
2016-07-23 06:34:00,53.2,16.3,30.02,West,270,2.3,2.3,23,0.00,OVC,FEW,0.00,0.0,WeatherDisplay:10.37,2016-07-23 13:34:00,
2016-07-23 06:39:00,53.8,13.6,30.02,West,270,0.0,0.0,20,0.00,OVC,FEW,0.00,100.0,WeatherDisplay:10.37,2016-07-23 13:39:00,
2016-07-23 06:44:00,54.1,13.9,30.02,West,270,0.0,0.0,20,0.00,OVC,FEW,0.00,100.0,WeatherDisplay:10.37,2016-07-23 13:44:00,
2016-07-23 06:49:00,55.0,14.6,30.02,WNW,292,0.0,0.0,20,0.00,OVC,FEW,0.00,100.0,WeatherDisplay:10.37,2016-07-23 13:49:00,
2016-07-23 06:54:00,55.9,15.4,30.02,WNW,292,0.0,0.0,20,0.00,OVC,FEW,0.00,100.0,WeatherDisplay:10.37,2016-07-23 13:54:00,
2016-07-23 06:59:00,56.5,15.8,30.02,WNW,292,0.0,0.0,20,0.00,OVC,FEW,0.00,100.0,WeatherDisplay:10.37,2016-07-23 13:59:00,
2016-07-23 07:04:00,57.2,18.6,30.02,WNW,292,0.0,0.0,22,0.00,OVC,FEW,0.00,100.0,WeatherDisplay:10.37,2016-07-23 14:04:00,
2016-07-23 07:09:00,57.9,15.8,30.02,WNW,292,0.0,0.0,19,0.00,OVC,FEW,0.00,200.0,WeatherDisplay:10.37,2016-07-23 14:09:00,
2016-07-23 07:14:00,58.6,16.4,30.02,WNW,292,0.0,0.0,19,0.00,OVC,FEW,0.00,200.0,WeatherDisplay:10.37,2016-07-23 14:14:00,
2016-07-23 07:19:00,59.9,17.5,30.02,West,270,0.0,0.0,19,0.00,OVC,FEW,0.00,200.0,WeatherDisplay:10.37,2016-07-23 14:19:00,
2016-07-23 07:24:00,61.3,18.7,30.02,West,270,0.0,0.0,19,0.00,OVC,FEW,0.00,200.0,WeatherDisplay:10.37,2016-07-23 14:24:00,
2016-07-23 07:29:00,62.4,19.6,30.02,WSW,248,0.0,0.0,19,0.00,OVC,FEW,0.00,200.0,WeatherDisplay:10.37,2016-07-23 14:29:00,
2016-07-23 07:34:00,63.5,19.2,30.05,ESE,112,0.0,0.0,18,0.00,OVC,FEW,0.00,200.0,WeatherDisplay:10.37,2016-07-23 14:34:00,
2016-07-23 07:39:00,64.4,19.9,30.05,SE,135,1.1,0.0,18,0.00,OVC,FEW,0.00,300.0,WeatherDisplay:10.37,2016-07-23 14:39:00,
2016-07-23 07:44:00,65.1,20.5,30.05,ESE,112,0.0,0.0,18,0.00,OVC,FEW,0.00,300.0,WeatherDisplay:10.37,2016-07-23 14:44:00,
2016-07-23 07:49:00,65.8,21.1,30.05,ESE,112,2.3,0.0,18,0.00,OVC,FEW,0.00,300.0,WeatherDisplay:10.37,2016-07-23 14:49:00,
2016-07-23 07:54:00,66.4,20.2,30.05,NE,45,1.1,0.0,17,0.00,OVC,FEW,0.00,300.0,WeatherDisplay:10.37,2016-07-23 14:54:00,
2016-07-23 07:59:00,66.6,20.3,30.05,SE,135,0.0,0.0,17,0.00,OVC,FEW,0.00,300.0,WeatherDisplay:10.37,2016-07-23 14:59:00,
2016-07-23 08:04:00,66.9,20.6,30.02,ESE,112,1.1,0.0,17,0.00,OVC,FEW,0.00,400.0,WeatherDisplay:10.37,2016-07-23 15:04:00,
2016-07-23 08:09:00,67.3,20.9,30.02,ESE,112,2.3,2.3,17,0.00,BKN,FEW,0.00,400.0,WeatherDisplay:10.37,2016-07-23 15:09:00,
2016-07-23 08:14:00,67.5,21.1,30.02,ENE,68,1.6,1.6,17,0.00,BKN,FEW,0.00,400.0,WeatherDisplay:10.37,2016-07-23 15:14:00,
2016-07-23 08:19:00,67.6,21.2,30.02,WSW,248,0.0,0.0,17,0.00,BKN,FEW,0.00,400.0,WeatherDisplay:10.37,2016-07-23 15:19:00,
2016-07-23 08:24:00,67.8,21.4,30.02,NE,45,1.1,0.0,17,0.00,BKN,FEW,0.00,400.0,WeatherDisplay:10.37,2016-07-23 15:24:00,
2016-07-23 08:29:00,67.8,21.4,30.02,SSE,158,1.6,1.6,17,0.00,BKN,FEW,0.00,400.0,WeatherDisplay:10.37,2016-07-23 15:29:00,
2016-07-23 08:34:00,68.2,21.7,30.02,ENE,68,2.3,2.3,17,0.00,SCT,FEW,0.00,500.0,WeatherDisplay:10.37,2016-07-23 15:34:00,
2016-07-23 08:39:00,68.4,21.8,30.02,North,0,1.6,0.0,17,0.00,SCT,FEW,0.00,500.0,WeatherDisplay:10.37,2016-07-23 15:39:00,
2016-07-23 08:44:00,68.7,22.1,30.02,South,180,2.3,2.3,17,0.00,SCT,FEW,0.00,500.0,WeatherDisplay:10.37,2016-07-23 15:44:00,
2016-07-23 08:49:00,68.9,22.2,30.02,ESE,112,1.4,0.0,17,0.00,SCT,FEW,0.00,500.0,WeatherDisplay:10.37,2016-07-23 15:49:00,
2016-07-23 08:54:00,69.4,22.7,30.02,ENE,68,2.3,2.3,17,0.00,CLR,FEW,0.00,700.0,WeatherDisplay:10.37,2016-07-23 15:54:00,
2016-07-23 08:59:00,69.8,23.0,30.02,SSE,158,2.3,0.0,17,0.00,CLR,FEW,0.00,1000.0,WeatherDisplay:10.37,2016-07-23 15:59:00,
2016-07-23 09:04:00,70.3,23.4,30.02,NNW,338,2.3,2.3,17,0.00,CLR,FEW,0.00,1100.0,WeatherDisplay:10.37,2016-07-23 16:04:00,
2016-07-23 09:09:00,71.1,24.0,30.02,East,90,2.3,2.3,17,0.00,CLR,FEW,0.00,1200.0,WeatherDisplay:10.37,2016-07-23 16:09:00,
2016-07-23 09:14:00,71.6,23.0,30.02,SE,135,2.6,2.6,16,0.00,CLR,FEW,0.00,1300.0,WeatherDisplay:10.37,2016-07-23 16:14:00,
2016-07-23 09:19:00,72.0,23.3,30.02,ENE,68,2.3,2.3,16,0.00,CLR,FEW,0.00,1400.0,WeatherDisplay:10.37,2016-07-23 16:19:00,
2016-07-23 09:24:00,72.5,23.7,30.02,ENE,68,3.5,3.5,16,0.00,CLR,FEW,0.00,1500.0,WeatherDisplay:10.37,2016-07-23 16:24:00,
2016-07-23 09:29:00,72.9,24.0,30.02,ESE,112,2.4,2.4,16,0.00,CLR,FEW,0.00,1500.0,WeatherDisplay:10.37,2016-07-23 16:29:00,
2016-07-23 09:34:00,73.6,24.6,30.02,SSE,158,2.3,2.3,16,0.00,CLR,FEW,0.00,1600.0,WeatherDisplay:10.37,2016-07-23 16:34:00,
2016-07-23 09:39:00,73.9,24.9,30.02,ENE,68,2.3,2.3,16,0.00,CLR,FEW,0.00,1600.0,WeatherDisplay:10.37,2016-07-23 16:39:00,
2016-07-23 09:44:00,73.9,24.9,30.02,ESE,112,2.3,2.3,16,0.00,CLR,FEW,0.00,1600.0,WeatherDisplay:10.37,2016-07-23 16:44:00,
2016-07-23 09:49:00,74.1,25.0,30.02,West,270,2.3,2.3,16,0.00,CLR,FEW,0.00,1600.0,WeatherDisplay:10.37,2016-07-23 16:49:00,
2016-07-23 09:54:00,74.7,25.5,30.02,SE,135,4.6,4.6,16,0.00,CLR,FEW,0.00,1600.0,WeatherDisplay:10.37,2016-07-23 16:54:00,
2016-07-23 09:59:00,75.0,25.7,30.02,ENE,68,3.5,3.5,16,0.00,CLR,FEW,0.00,1600.0,WeatherDisplay:10.37,2016-07-23 16:59:00,
2016-07-23 10:04:00,75.2,24.3,30.02,SSE,158,3.5,3.5,15,0.00,CLR,FEW,0.00,1600.0,WeatherDisplay:10.37,2016-07-23 17:04:00,
2016-07-23 10:09:00,75.6,24.6,30.02,ENE,68,2.3,2.3,15,0.00,CLR,FEW,0.00,1600.0,WeatherDisplay:10.37,2016-07-23 17:09:00,
2016-07-23 10:14:00,75.9,24.9,30.02,SE,135,3.5,3.5,15,0.00,CLR,FEW,0.00,1600.0,WeatherDisplay:10.37,2016-07-23 17:14:00,
2016-07-23 10:19:00,76.3,25.2,30.02,ESE,112,4.6,4.6,15,0.00,CLR,FEW,0.00,1600.0,WeatherDisplay:10.37,2016-07-23 17:19:00,
2016-07-23 10:24:00,76.5,25.3,30.02,SE,135,2.3,2.3,15,0.00,CLR,FEW,0.00,1600.0,WeatherDisplay:10.37,2016-07-23 17:24:00,
2016-07-23 10:30:00,77.0,25.8,30.02,WSW,248,2.3,2.3,15,0.00,CLR,FEW,0.00,1600.0,WeatherDisplay:10.37,2016-07-23 17:30:00,
2016-07-23 10:35:00,76.8,25.6,29.99,SSW,202,2.3,2.3,15,0.00,CLR,FEW,0.00,1600.0,WeatherDisplay:10.37,2016-07-23 17:35:00,
2016-07-23 10:40:00,77.0,25.8,29.99,SSE,158,4.3,4.3,15,0.00,CLR,FEW,0.00,1600.0,WeatherDisplay:10.37,2016-07-23 17:40:00,
2016-07-23 10:45:00,76.5,25.3,29.99,SSE,158,3.5,3.5,15,0.00,CLR,FEW,0.00,1600.0,WeatherDisplay:10.37,2016-07-23 17:45:00,
2016-07-23 10:50:00,76.6,25.5,29.99,SSE,158,5.8,5.8,15,0.00,CLR,FEW,0.00,1600.0,WeatherDisplay:10.37,2016-07-23 17:50:00,
2016-07-23 10:55:00,77.9,26.5,29.99,NNE,22,2.3,2.3,15,0.00,CLR,FEW,0.00,1600.0,WeatherDisplay:10.37,2016-07-23 17:55:00,
2016-07-23 11:00:00,78.4,26.9,29.99,ESE,108,3.0,3.0,15,0.00,CLR,FEW,0.00,1600.0,WeatherDisplay:10.37,2016-07-23 18:00:00,
2016-07-23 11:05:00,78.6,27.1,29.99,ENE,68,4.6,4.6,15,0.00,CLR,FEW,0.00,1600.0,WeatherDisplay:10.37,2016-07-23 18:05:00,
2016-07-23 11:10:00,78.8,27.2,29.99,ESE,112,2.3,2.3,15,0.00,CLR,FEW,0.00,1600.0,WeatherDisplay:10.37,2016-07-23 18:10:00,
2016-07-23 11:15:00,79.3,27.6,29.99,ENE,68,4.6,4.6,15,0.00,CLR,FEW,0.00,1600.0,WeatherDisplay:10.37,2016-07-23 18:15:00,
2016-07-23 11:20:00,79.5,27.8,30.02,WNW,292,2.3,2.4,15,0.00,CLR,FEW,0.00,1600.0,WeatherDisplay:10.37,2016-07-23 18:20:00,
2016-07-23 11:25:00,79.9,28.1,30.02,NNE,22,2.6,2.6,15,0.00,CLR,FEW,0.00,1600.0,WeatherDisplay:10.37,2016-07-23 18:25:00,
2016-07-23 11:30:00,80.4,28.5,30.02,NW,315,3.5,3.5,15,0.00,CLR,FEW,0.00,1600.0,WeatherDisplay:10.37,2016-07-23 18:30:00,
2016-07-23 11:35:00,80.8,27.1,29.99,SSW,202,2.9,2.9,14,0.00,CLR,FEW,0.00,1600.0,WeatherDisplay:10.37,2016-07-23 18:35:00,
2016-07-23 11:40:00,80.4,28.5,29.99,ENE,68,2.9,2.9,15,0.00,CLR,FEW,0.00,1600.0,WeatherDisplay:10.37,2016-07-23 18:40:00,
2016-07-23 11:45:00,81.5,27.7,29.99,NNE,22,2.3,2.3,14,0.00,CLR,FEW,0.00,1600.0,WeatherDisplay:10.37,2016-07-23 18:45:00,
2016-07-23 11:50:00,81.7,27.8,29.99,ENE,68,3.5,3.5,14,0.00,CLR,FEW,0.00,1600.0,WeatherDisplay:10.37,2016-07-23 18:50:00,
2016-07-23 11:55:00,82.6,28.5,29.99,ENE,68,4.6,4.6,14,0.00,CLR,FEW,0.00,1600.0,WeatherDisplay:10.37,2016-07-23 18:55:00,
2016-07-23 12:00:00,82.9,28.8,29.99,ESE,112,2.3,2.3,14,0.00,CLR,FEW,0.00,1600.0,WeatherDisplay:10.37,2016-07-23 19:00:00,
2016-07-23 12:05:00,83.1,29.0,29.99,ESE,112,3.8,3.8,14,0.00,CLR,FEW,0.00,1600.0,WeatherDisplay:10.37,2016-07-23 19:05:00,
2016-07-23 12:10:00,83.7,29.4,29.99,East,90,3.5,3.5,14,0.00,CLR,FEW,0.00,1600.0,WeatherDisplay:10.37,2016-07-23 19:10:00,
2016-07-23 12:15:00,83.8,29.5,29.99,NNE,22,3.5,3.5,14,0.00,CLR,FEW,0.00,1600.0,WeatherDisplay:10.37,2016-07-23 19:15:00,
2016-07-23 12:20:00,83.8,29.5,29.99,ENE,68,3.5,3.5,14,0.00,CLR,FEW,0.00,1600.0,WeatherDisplay:10.37,2016-07-23 19:20:00,
2016-07-23 12:25:00,83.5,29.2,29.99,SSE,158,1.6,2.0,14,0.00,CLR,FEW,0.00,1600.0,WeatherDisplay:10.37,2016-07-23 19:25:00,
2016-07-23 12:30:00,83.5,29.2,29.99,SSE,158,4.6,4.6,14,0.00,CLR,FEW,0.00,1600.0,WeatherDisplay:10.37,2016-07-23 19:30:00,
2016-07-23 12:35:00,83.5,29.2,29.99,North,0,4.6,4.6,14,0.00,OVC,FEW,0.00,1600.0,WeatherDisplay:10.37,2016-07-23 19:35:00,
2016-07-23 12:40:00,83.5,29.2,29.99,NNE,22,4.6,4.6,14,0.00,OVC,FEW,0.00,1600.0,WeatherDisplay:10.37,2016-07-23 19:40:00,
2016-07-23 12:45:00,85.1,28.7,29.99,East,90,2.6,2.6,13,0.00,OVC,FEW,0.00,1600.0,WeatherDisplay:10.37,2016-07-23 19:45:00,
2016-07-23 12:50:00,85.5,29.0,29.99,ESE,112,3.1,3.1,13,0.00,OVC,FEW,0.00,1600.0,WeatherDisplay:10.37,2016-07-23 19:50:00,
2016-07-23 12:55:00,86.0,29.4,29.99,ENE,68,4.6,4.6,13,0.00,OVC,FEW,0.00,1600.0,WeatherDisplay:10.37,2016-07-23 19:55:00,
2016-07-23 13:00:00,86.2,29.6,29.99,SSE,158,2.3,2.3,13,0.00,OVC,FEW,0.00,1600.0,WeatherDisplay:10.37,2016-07-23 20:00:00,
2016-07-23 13:05:00,86.5,29.8,29.99,East,90,3.5,3.5,13,0.00,OVC,FEW,0.00,1600.0,WeatherDisplay:10.37,2016-07-23 20:05:00,
2016-07-23 13:10:00,87.1,30.3,29.99,SSE,158,3.5,3.5,13,0.00,OVC,FEW,0.00,1600.0,WeatherDisplay:10.37,2016-07-23 20:10:00,
2016-07-23 13:15:00,87.1,30.3,29.99,ESE,112,3.5,3.5,13,0.00,OVC,FEW,0.00,1600.0,WeatherDisplay:10.37,2016-07-23 20:15:00,
2016-07-23 13:20:00,87.3,30.4,29.99,ENE,68,5.8,5.8,13,0.00,OVC,FEW,0.00,1600.0,WeatherDisplay:10.37,2016-07-23 20:20:00,
2016-07-23 13:25:00,87.4,30.5,29.99,NNE,22,5.8,5.8,13,0.00,OVC,FEW,0.00,1600.0,WeatherDisplay:10.37,2016-07-23 20:25:00,
2016-07-23 13:30:00,87.6,30.7,29.99,NNE,22,3.5,3.5,13,0.00,OVC,FEW,0.00,1600.0,WeatherDisplay:10.37,2016-07-23 20:30:00,
2016-07-23 13:35:00,88.0,31.0,29.99,ENE,68,3.5,3.5,13,0.00,OVC,FEW,0.00,1600.0,WeatherDisplay:10.37,2016-07-23 20:35:00,
2016-07-23 13:40:00,88.3,31.2,29.99,NNE,22,5.8,5.8,13,0.00,OVC,FEW,0.00,1600.0,WeatherDisplay:10.37,2016-07-23 20:40:00,
2016-07-23 13:45:00,89.1,31.8,29.99,ESE,112,2.3,2.3,13,0.00,OVC,FEW,0.00,1600.0,WeatherDisplay:10.37,2016-07-23 20:45:00,
2016-07-23 13:50:00,89.8,30.4,29.96,SSE,158,4.5,4.5,12,0.00,OVC,FEW,0.00,1600.0,WeatherDisplay:10.37,2016-07-23 20:50:00,
2016-07-23 13:55:00,89.4,32.1,29.96,ESE,112,3.5,3.5,13,0.00,OVC,FEW,0.00,1600.0,WeatherDisplay:10.37,2016-07-23 20:55:00,
2016-07-23 14:00:00,88.7,31.5,29.96,ESE,112,6.9,6.9,13,0.00,OVC,FEW,0.00,1600.0,WeatherDisplay:10.37,2016-07-23 21:00:00,
2016-07-23 14:05:00,87.8,30.8,29.99,SSE,158,3.5,3.5,13,0.00,OVC,FEW,0.00,1600.0,WeatherDisplay:10.37,2016-07-23 21:05:00,
2016-07-23 14:10:00,88.5,31.4,29.99,SSE,158,4.6,4.6,13,0.00,OVC,FEW,0.00,1600.0,WeatherDisplay:10.37,2016-07-23 21:10:00,
2016-07-23 14:15:00,88.5,31.4,29.99,WSW,248,4.6,4.6,13,0.00,OVC,FEW,0.00,1600.0,WeatherDisplay:10.37,2016-07-23 21:15:00,
2016-07-23 14:20:00,89.1,31.8,29.99,SSE,158,2.4,2.4,13,0.00,OVC,FEW,0.00,1600.0,WeatherDisplay:10.37,2016-07-23 21:20:00,
2016-07-23 14:25:00,88.3,31.2,29.93,ESE,112,4.6,4.6,13,0.00,OVC,FEW,0.00,1600.0,WeatherDisplay:10.37,2016-07-23 21:25:00,
2016-07-23 14:30:00,88.3,31.2,29.93,WSW,248,3.5,3.5,13,0.00,OVC,FEW,0.00,1600.0,WeatherDisplay:10.37,2016-07-23 21:30:00,
2016-07-23 14:35:00,89.2,31.9,29.93,SE,135,2.3,2.3,13,0.00,OVC,FEW,0.00,1600.0,WeatherDisplay:10.37,2016-07-23 21:35:00,